Location: Unspecified
(48.9757°N, 0.0000°E)
Time: 11:11:12
(UTC+00:00)

Envisat - Visible Passes

Search period start: 10 December 2019 00:00
Search period end: 20 December 2019 00:00
Orbit: 764 x 766 km, 98.1° (Epoch: 10 December)

Date Brightness Start Highest point End Pass type
(mag) Time Alt. Az. Time Alt. Az. Time Alt. Az.
10 Dec 4.5 06:20:36 10° NNE 06:25:23 40° E 06:30:09 10° SSE visible
10 Dec 2.9 17:38:57 10° SSE 17:44:01 77° ENE 17:49:07 10° NNW visible
10 Dec 5.8 19:20:32 10° SW 19:23:39 16° W 19:26:47 10° NW visible
11 Dec 5.7 05:44:34 10° NE 05:48:18 20° E 05:52:00 10° SE visible
11 Dec 3.4 17:02:42 10° SE 17:07:23 39° ENE 17:12:06 10° N visible
11 Dec 4.7 18:41:57 10° SSW 18:46:29 32° W 18:51:03 10° NNW visible
12 Dec 3.5 06:45:55 10° NNE 06:51:00 66° ESE 06:56:03 10° S visible
12 Dec 3.4 18:04:29 10° S 18:09:31 66° WSW 18:14:36 10° NNW visible
13 Dec 4.9 06:09:27 10° NNE 06:14:02 32° E 06:18:35 10° SSE visible
13 Dec 3.0 17:27:45 10° SSE 17:32:45 63° ENE 17:37:48 10° N visible
13 Dec 5.5 19:08:33 10° SW 19:12:14 20° W 19:15:56 10° NW visible
14 Dec 6.0 05:33:42 10° NE 05:36:53 16° E 05:40:01 10° SE visible
14 Dec 3.7 16:51:42 10° SE 16:56:11 32° ENE 17:00:41 10° N visible
14 Dec 4.3 18:30:23 10° SSW 18:35:07 39° W 18:39:55 10° NNW visible
15 Dec 3.9 06:34:41 10° NNE 06:39:41 53° E 06:44:38 10° S visible
15 Dec 3.1 17:53:08 10° SSE 17:58:13 81° WSW 18:03:21 10° NNW visible
15 Dec 6.1 19:36:15 10° WSW 19:38:05 12° W 19:39:56 10° WNW visible
16 Dec 5.3 05:58:23 10° NE 06:02:39 27° E 06:06:55 10° SSE visible
16 Dec 3.1 17:16:37 10° SE 17:21:31 51° ENE 17:26:27 10° N visible
16 Dec 5.2 18:56:44 10° SW 19:00:50 24° W 19:04:58 10° NW visible
17 Dec 6.1 05:23:05 10° ENE 05:25:26 13° E 05:27:47 10° ESE visible
17 Dec 3.1 07:00:06 10° NNE 07:05:14 87° ESE 07:10:19 10° SSW visible
17 Dec 3.9 16:40:47 10° ESE 16:44:59 27° ENE 16:49:14 10° N visible
17 Dec 3.9 18:18:53 10° S 18:23:47 49° W 18:28:44 10° NNW visible
18 Dec 4.3 06:23:29 10° NNE 06:28:21 43° E 06:33:11 10° S visible
18 Dec 2.9 17:41:51 10° SSE 17:46:56 83° ENE 17:52:03 10° NNW visible
18 Dec 5.9 19:23:48 10° WSW 19:26:38 15° W 19:29:29 10° NW visible
19 Dec 5.6 05:47:22 10° NE 05:51:16 22° E 05:55:09 10° SE visible
19 Dec 3.3 17:05:32 10° SE 17:10:18 42° ENE 17:15:04 10° N visible
19 Dec 4.9 18:45:01 10° SSW 18:49:27 30° W 18:53:55 10° NNW visible
